Torna al catalogo

GONETS M 18

AttivoComunicazioniPO
NORAD 46487·PAYLOAD·🇷🇺 Russia

Lanciato Sep 28, 2020 da Plesetsk Cosmodrome

Loading…

Prossimi Passaggi (prossime 24 ore)

TLE

AggiornatoSource: Space-Track

Epoca: Sep 14, 2026, 14:32 UTC

1 46487U 20068B   26257.60611063  .00000022  00000-0  86694-4 0  9991
2 46487  82.4905 290.9653 0019644 193.2644 166.7922 12.42876807270250

Traccia GONETS M 18 in tempo reale con AllMySat

Download on the App Store